DELTA 1 DEB, 2700

Orbit data source: Space-Track

DELTA 1 DEB, 2700 is space debris in LEO originally from a launch on Sat, 06 Nov 1965 UTC launched from the Air Force Eastern Test Range (AFETR). Debris objects in space refer to the collection of defunct objects orbiting the Earth. Examples of debris include non-operational satellites, rocket bodies, and fragments generated from explosions, collisions, or faulty payload assembly.

Loading next visibility...
DELTA 1 DEB details
Identifier
2700, 1965-089C
Orbit
LEO
Last TLE update23 hours ago
Origin
Flag of USGSFC (US)
ManufacturerUnknown
MissionSpacecraft
Bus & MotorUnknown
MassUnknown
Launch date (UTC)
1965-11-06 (59 years ago)
Launch vehicleUnknown
Launch site
Air Force Eastern Test Range (AFETR)
Object type
Payload
Rocket body
Debris
Shape & HBRUnknown
Radar Cross SectionSmall (<0.1 m²)

Expand to show TLE details & history

TLE from 23 hours ago
0 DELTA 1 DEB
1 02700U 65089C   25023.97051937  .00000102  00000-0  90499-3 0  9997
2 02700  59.5981  19.4798 0723083 115.9088 342.2109 12.08961622649884
Epoch: 2025-01-23T23:17Z
Definitive object data (Epoch: 2025-01-23T23:17:32.873Z)
Latitude59.30533°
Longitude7.05071°
Altitude1,101.841 km
Speed7.553 km/s
True Right ascension07h 59m 54s
True Declination59° 09' 40"
Sunlit
Object was in full shadow at TLE epoch
Visualization TLE readout
Latitude13.51089°
Longitude-87.61133°
Altitude1,709.232 km
Speed6.994 km/s
Apparent Right ascension03h 46m 56s
Apparent Declination-28° 31' 45"
Sunlit
Object is in daylight
Visualization observer readout
Local Sidereal Time23:59:39
Azimuth132.543° SE
Elevation3.572°
Doppler factor1
Orbital elements
Apogee altitude2,220.152 km
Perigee altitude1,060.546 km
Semi-major axis8,018.486 km
Eccentricity0.0723083
Inclination59.5981°
RAAN19.4798°
Arg. of periapsis115.9088°
True anomaly339.44314°
Mean anomaly342.2109°
Eccentric anomaly340.85197°
Mean motion3.02277 °/min
BSTAR0.00090499
Orbital period119.1 mins
Loading maneuver chart data...
Loading historical data...
Loading historical data...
Loading historical data...
Loading historical data...
Loading historical data...
Loading historical data...
Loading historical data...

DELTA 1 DEB Visibility forecast

Observer location: undefined°, undefined

Span
Click to sort rows by Start time (UTC) header in descending order
Start Az.
Max El. time (UTC)
Max El. Az.
Max El.
End time (UTC)
End Az.
15 mins2025-01-25 00:41:07.637Z190.282° SSW2025-01-25 00:49:07.637Z131.426° SE36.544°2025-01-25 00:56:07.637Z53.479° ENE
14 mins2025-01-25 02:46:07.637Z249.37° W2025-01-25 02:53:07.637Z311.232° NW35.734°2025-01-25 03:00:07.637Z30.094° NE
7 mins2025-01-25 04:56:07.637Z316.991° NNW2025-01-25 04:59:07.637Z344.354° N16.619°2025-01-25 05:03:07.637Z21.78° NNE
7 mins2025-01-25 07:03:07.637Z347.631° N2025-01-25 07:06:07.637Z18.45° NNE17.339°2025-01-25 07:10:07.637Z57.734° ENE
11 mins2025-01-25 09:06:07.637Z329.768° NNW2025-01-25 09:11:07.637Z39.085° NE40.089°2025-01-25 09:17:07.637Z121.653° SE
10 mins2025-01-25 11:10:07.637Z290.675° WNW2025-01-25 11:14:07.637Z246.852° WSW24.122°2025-01-25 11:20:07.637Z189.228° SSW
|